User: anonymous
Location: Vancouver
(49.2500°N, 123.1330°W)
Time: 18:34:00
(UTC-07:00)
Language:

AO-27 - Orbit

View from above orbital plane
View from above orbital plane
View from above satellite
View from above satellite

Ground track
Ground track

The orbit data is extracted from the following two-line orbital elements,

1 22825U 93061C   14204.92872071  .00000014  00000-0  22814-4 0  7214
2 22825 098.6639 150.8171 0008546 182.3644 219.7751 14.29730833 86035
Epoch (UTC): 23 July 2014 22:17:21
Eccentricity: 0.0008546
inclination: 98.6639°
perigee height: 786 km
apogee height: 799 km
right ascension of ascending node: 150.8171°
argument of perigee: 182.3644°
revolutions per day: 14.29730833
mean anomaly at epoch: 219.7751°
orbit number at epoch: 8603

The dashed part of the orbit path shows where the satellite is in the earth's shadow,  

DLR